EWG321 EDDV-EDDK

Flight info

Callsign EWG321
Flight time 0h 34m
Altitude 24000
Route WRB3S WRB P12 ESADU T858 KOPAG KOPAG13
Aircraft A320/M-SDE3FGHIRWY/LB1

Departure

Time 2026-04-22 21:09
Airport Hannover Airport (EDDV)

Arrival

Time 2026-04-22 21:43
Airport Cologne Bonn Airport (EDDK)
Time Latitude Longitude Altitude Speed Heading
2026-04-22 19:49 52.45770 9.69581 178 ft 0 kts 52°
2026-04-22 21:01 52.45762 9.69564 178 ft 4 kts 52°
2026-04-22 21:01 52.45750 9.69538 178 ft 5 kts 52°
2026-04-22 21:01 52.45743 9.69523 178 ft 7 kts 52°
2026-04-22 21:01 52.45730 9.69501 178 ft 7 kts 23°
2026-04-22 21:02 52.45712 9.69495 178 ft 8 kts 350°
2026-04-22 21:02 52.45697 9.69502 178 ft 6 kts 332°
2026-04-22 21:02 52.45693 9.69505 178 ft 9 kts 332°
2026-04-22 21:03 52.45708 9.69493 178 ft 7 kts 332°
2026-04-22 21:03 52.45742 9.69447 178 ft 7 kts 301°
2026-04-22 21:03 52.45755 9.69355 178 ft 13 kts 271°
2026-04-22 21:03 52.45752 9.69204 178 ft 14 kts 247°
2026-04-22 21:04 52.45668 9.69150 178 ft 13 kts 180°
2026-04-22 21:04 52.45624 9.69241 179 ft 11 kts 97°
2026-04-22 21:04 52.45618 9.69360 179 ft 12 kts 92°
2026-04-22 21:04 52.45615 9.69496 179 ft 11 kts 92°
2026-04-22 21:05 52.45612 9.69619 179 ft 11 kts 92°
2026-04-22 21:05 52.45607 9.69789 179 ft 16 kts 92°
2026-04-22 21:05 52.45602 9.69961 179 ft 14 kts 93°
2026-04-22 21:05 52.45597 9.70112 179 ft 14 kts 93°
2026-04-22 21:06 52.45591 9.70297 179 ft 16 kts 93°
2026-04-22 21:06 52.45585 9.70485 179 ft 20 kts 92°
2026-04-22 21:06 52.45577 9.70835 179 ft 35 kts 92°
2026-04-22 21:06 52.45557 9.71046 179 ft 10 kts 119°
2026-04-22 21:07 52.45502 9.71097 179 ft 12 kts 172°
2026-04-22 21:07 52.45446 9.71083 183 ft 0 kts 200°
2026-04-22 21:07 52.45437 9.71077 194 ft 8 kts 200°
2026-04-22 21:07 52.45407 9.71013 185 ft 6 kts 252°
2026-04-22 21:08 52.45407 9.70950 185 ft 5 kts 274°
2026-04-22 21:08 52.45409 9.70897 185 ft 4 kts 274°
2026-04-22 21:08 52.45413 9.70758 184 ft 37 kts 272°
2026-04-22 21:08 52.45438 9.69902 182 ft 109 kts 272°
2026-04-22 21:09 52.45489 9.68357 236 ft 156 kts 274°
2026-04-22 21:09 52.45553 9.66550 829 ft 161 kts 276°
2026-04-22 21:09 52.45615 9.64675 1491 ft 168 kts 276°
2026-04-22 21:09 52.45675 9.62714 2096 ft 177 kts 275°
2026-04-22 21:10 52.45735 9.60642 2682 ft 183 kts 274°
2026-04-22 21:10 52.45788 9.58574 3405 ft 181 kts 274°
2026-04-22 21:10 52.45832 9.56486 4027 ft 185 kts 272°
2026-04-22 21:10 52.45599 9.54386 4627 ft 193 kts 251°
2026-04-22 21:11 52.44864 9.52475 5084 ft 209 kts 227°
2026-04-22 21:11 52.43549 9.51254 5479 ft 225 kts 199°
2026-04-22 21:11 52.42059 9.50556 6267 ft 222 kts 199°
2026-04-22 21:11 52.40607 9.49513 6737 ft 239 kts 211°
2026-04-22 21:12 52.39126 9.48007 7078 ft 263 kts 215°
2026-04-22 21:12 52.37540 9.46285 7523 ft 283 kts 215°
2026-04-22 21:12 52.35862 9.44490 8285 ft 290 kts 213°
2026-04-22 21:12 52.34089 9.42873 9129 ft 295 kts 202°
2026-04-22 21:13 52.32095 9.42023 9984 ft 299 kts 185°
2026-04-22 21:13 52.30007 9.42077 10734 ft 306 kts 173°
2026-04-22 21:13 52.27800 9.42432 11023 ft 330 kts 173°
2026-04-22 21:13 52.25455 9.42813 11474 ft 345 kts 173°
2026-04-22 21:14 52.23046 9.43195 12210 ft 350 kts 173°
2026-04-22 21:14 52.20612 9.43570 12984 ft 354 kts 173°
2026-04-22 21:14 52.18140 9.43939 13775 ft 358 kts 173°
2026-04-22 21:14 52.15652 9.44309 14498 ft 361 kts 173°
2026-04-22 21:15 52.13140 9.44681 15175 ft 365 kts 173°
2026-04-22 21:15 52.10599 9.45059 15849 ft 368 kts 173°
2026-04-22 21:15 52.08035 9.45439 16542 ft 371 kts 173°
2026-04-22 21:15 52.05487 9.45815 17215 ft 374 kts 173°
2026-04-22 21:16 52.02887 9.46201 17889 ft 377 kts 173°
2026-04-22 21:16 52.00263 9.46589 18555 ft 380 kts 173°
2026-04-22 21:16 51.97615 9.46982 19142 ft 383 kts 173°
2026-04-22 21:16 51.94950 9.47377 19711 ft 386 kts 173°
2026-04-22 21:17 51.92271 9.47778 20284 ft 388 kts 172°
2026-04-22 21:17 51.89576 9.48179 20864 ft 390 kts 172°
2026-04-22 21:17 51.86850 9.48390 21408 ft 395 kts 182°
2026-04-22 21:17 51.84153 9.47415 21933 ft 402 kts 200°
2026-04-22 21:18 51.81707 9.45175 22461 ft 408 kts 212°
2026-04-22 21:18 51.79350 9.42597 22999 ft 410 kts 212°
2026-04-22 21:18 51.76987 9.39985 23314 ft 412 kts 212°
2026-04-22 21:18 51.74629 9.37370 23276 ft 408 kts 212°
2026-04-22 21:19 51.72317 9.34809 22998 ft 398 kts 212°
2026-04-22 21:19 51.70062 9.32316 22719 ft 388 kts 212°
2026-04-22 21:19 51.67858 9.29892 22451 ft 381 kts 212°
2026-04-22 21:19 51.65667 9.27502 22198 ft 379 kts 212°
2026-04-22 21:20 51.63483 9.25127 21934 ft 378 kts 212°
2026-04-22 21:20 51.61308 9.22767 21675 ft 377 kts 212°
2026-04-22 21:20 51.59139 9.20411 21409 ft 375 kts 212°
2026-04-22 21:20 51.56979 9.18064 21145 ft 374 kts 212°
2026-04-22 21:21 51.54827 9.15729 20900 ft 373 kts 212°
2026-04-22 21:21 51.52743 9.13254 20644 ft 373 kts 220°
2026-04-22 21:21 51.50946 9.10266 20396 ft 372 kts 231°
2026-04-22 21:21 51.49502 9.06830 20142 ft 371 kts 241°
2026-04-22 21:22 51.48420 9.03076 19892 ft 370 kts 247°
2026-04-22 21:22 51.47413 8.99282 19645 ft 369 kts 247°
2026-04-22 21:22 51.46413 8.95562 19405 ft 368 kts 247°
2026-04-22 21:22 51.45396 8.91807 19172 ft 367 kts 247°
2026-04-22 21:23 51.44377 8.88055 18927 ft 366 kts 247°
2026-04-22 21:23 51.43361 8.84324 18697 ft 365 kts 247°
2026-04-22 21:23 51.42347 8.80604 18430 ft 364 kts 247°
2026-04-22 21:23 51.41340 8.76904 18160 ft 362 kts 246°
2026-04-22 21:24 51.40183 8.73338 17884 ft 360 kts 240°
2026-04-22 21:24 51.38937 8.69872 17611 ft 359 kts 240°
2026-04-22 21:24 51.37693 8.66413 17354 ft 357 kts 240°
2026-04-22 21:24 51.36454 8.62979 17086 ft 355 kts 240°
2026-04-22 21:25 51.35221 8.59572 16825 ft 353 kts 240°
2026-04-22 21:25 51.33989 8.56183 16566 ft 351 kts 240°
2026-04-22 21:25 51.32762 8.52817 16319 ft 350 kts 240°
2026-04-22 21:25 51.31539 8.49459 16059 ft 348 kts 240°
2026-04-22 21:26 51.30319 8.46123 15798 ft 347 kts 240°
2026-04-22 21:26 51.29103 8.42802 15552 ft 346 kts 240°
2026-04-22 21:26 51.27891 8.39487 15300 ft 345 kts 240°
2026-04-22 21:26 51.26689 8.36184 15064 ft 344 kts 241°
2026-04-22 21:27 51.25496 8.32886 14818 ft 342 kts 241°
2026-04-22 21:27 51.24308 8.29602 14578 ft 341 kts 241°
2026-04-22 21:27 51.23123 8.26327 14331 ft 340 kts 241°
2026-04-22 21:27 51.21944 8.23074 14080 ft 339 kts 241°
2026-04-22 21:28 51.20763 8.19824 13818 ft 337 kts 241°
2026-04-22 21:28 51.19590 8.16605 13544 ft 336 kts 241°
2026-04-22 21:28 51.18416 8.13392 13279 ft 334 kts 241°
2026-04-22 21:28 51.17245 8.10196 12998 ft 333 kts 240°
2026-04-22 21:29 51.16077 8.07025 12750 ft 332 kts 240°
2026-04-22 21:29 51.14908 8.03862 12484 ft 331 kts 240°
2026-04-22 21:29 51.13745 8.00706 12223 ft 329 kts 241°
2026-04-22 21:29 51.12591 7.97565 11971 ft 328 kts 241°
2026-04-22 21:30 51.11442 7.94432 11714 ft 327 kts 241°
2026-04-22 21:30 51.10298 7.91323 11463 ft 325 kts 240°
2026-04-22 21:30 51.09153 7.88220 11214 ft 324 kts 240°
2026-04-22 21:30 51.08029 7.85176 10969 ft 323 kts 240°
2026-04-22 21:31 51.07030 7.82001 10725 ft 321 kts 251°
2026-04-22 21:31 51.06468 7.78590 10480 ft 318 kts 263°
2026-04-22 21:31 51.06314 7.75107 10271 ft 311 kts 269°
2026-04-22 21:31 51.06222 7.71730 10139 ft 301 kts 269°
2026-04-22 21:32 51.06124 7.68382 10003 ft 298 kts 269°
2026-04-22 21:32 51.06025 7.65138 9874 ft 297 kts 269°
2026-04-22 21:32 51.05923 7.61868 9739 ft 296 kts 269°
2026-04-22 21:32 51.05820 7.58603 9605 ft 295 kts 269°
2026-04-22 21:33 51.05719 7.55339 9462 ft 295 kts 269°
2026-04-22 21:33 51.05618 7.52085 9332 ft 295 kts 269°
2026-04-22 21:33 51.05514 7.48830 9203 ft 294 kts 269°
2026-04-22 21:33 51.05410 7.45587 9068 ft 294 kts 269°
2026-04-22 21:34 51.05305 7.42350 8935 ft 293 kts 269°
2026-04-22 21:34 51.05197 7.39119 8773 ft 293 kts 268°
2026-04-22 21:34 51.05089 7.35905 8499 ft 291 kts 268°
2026-04-22 21:34 51.04983 7.32705 8207 ft 289 kts 268°
2026-04-22 21:35 51.04886 7.29522 7914 ft 287 kts 271°
2026-04-22 21:35 51.05102 7.26403 7629 ft 282 kts 285°
2026-04-22 21:35 51.05619 7.23464 7497 ft 270 kts 287°
2026-04-22 21:35 51.06108 7.20657 7369 ft 258 kts 287°
2026-04-22 21:36 51.06564 7.17931 7073 ft 256 kts 283°
2026-04-22 21:36 51.06539 7.14995 6376 ft 275 kts 260°
2026-04-22 21:36 51.06160 7.11988 5757 ft 282 kts 259°
2026-04-22 21:36 51.05765 7.08920 5343 ft 281 kts 259°
2026-04-22 21:37 51.05379 7.05947 5199 ft 268 kts 259°
2026-04-22 21:37 51.05010 7.03107 5068 ft 256 kts 259°
2026-04-22 21:37 51.04657 7.00399 4823 ft 249 kts 259°
2026-04-22 21:37 51.04299 6.97687 4348 ft 253 kts 255°
2026-04-22 21:38 51.03433 6.95311 3944 ft 249 kts 217°
2026-04-22 21:38 51.01903 6.94355 3814 ft 230 kts 179°
2026-04-22 21:38 51.00430 6.94964 3681 ft 219 kts 144°
2026-04-22 21:38 50.99299 6.96560 3559 ft 218 kts 135°
2026-04-22 21:39 50.98217 6.98173 3226 ft 209 kts 136°
2026-04-22 21:39 50.97180 6.99685 2983 ft 198 kts 136°
2026-04-22 21:39 50.96183 7.01135 2736 ft 192 kts 136°
2026-04-22 21:39 50.95207 7.02557 2495 ft 189 kts 135°
2026-04-22 21:40 50.94247 7.03958 2238 ft 187 kts 135°
2026-04-22 21:40 50.93298 7.05344 1988 ft 185 kts 135°
2026-04-22 21:40 50.92355 7.06722 1741 ft 182 kts 135°
2026-04-22 21:40 50.91451 7.08022 1522 ft 170 kts 135°
2026-04-22 21:41 50.90600 7.09241 1300 ft 158 kts 135°
2026-04-22 21:41 50.89806 7.10376 1079 ft 150 kts 135°
2026-04-22 21:41 50.89063 7.11440 902 ft 141 kts 136°
2026-04-22 21:41 50.88340 7.12480 578 ft 139 kts 135°
2026-04-22 21:42 50.87633 7.13521 297 ft 136 kts 135°
2026-04-22 21:42 50.86973 7.14484 258 ft 116 kts 139°
2026-04-22 21:42 50.86486 7.15204 281 ft 64 kts 137°
2026-04-22 21:42 50.86160 7.15655 297 ft 73 kts 139°
2026-04-22 21:43 50.85788 7.16175 308 ft 61 kts 138°
2026-04-22 21:43 50.85629 7.16262 308 ft 20 kts 229°
2026-04-22 21:43 50.85544 7.16084 308 ft 20 kts 233°
2026-04-22 21:43 50.85518 7.15908 311 ft 16 kts 332°
2026-04-22 21:44 50.85604 7.15790 304 ft 18 kts 313°
2026-04-22 21:44 50.85697 7.15646 301 ft 20 kts 322°
2026-04-22 21:44 50.85809 7.15484 299 ft 24 kts 317°
2026-04-22 21:44 50.85938 7.15291 295 ft 27 kts 317°
2026-04-22 21:45 50.86086 7.15075 288 ft 31 kts 317°
2026-04-22 21:45 50.86252 7.14837 281 ft 34 kts 318°
2026-04-22 21:45 50.86436 7.14571 270 ft 38 kts 317°
2026-04-22 21:45 50.86629 7.14292 261 ft 35 kts 317°
2026-04-22 21:46 50.86796 7.14099 255 ft 30 kts 331°
2026-04-22 21:46 50.86960 7.13868 246 ft 34 kts 317°
2026-04-22 21:46 50.87143 7.13605 238 ft 37 kts 318°
2026-04-22 21:46 50.87340 7.13321 232 ft 39 kts 317°
2026-04-22 21:47 50.87531 7.13047 232 ft 26 kts 318°
2026-04-22 21:47 50.87656 7.12860 232 ft 25 kts 317°
2026-04-22 21:47 50.87785 7.12676 232 ft 17 kts 322°
2026-04-22 21:47 50.87837 7.12623 233 ft 12 kts 336°
2026-04-22 21:48 50.87910 7.12610 232 ft 8 kts 342°
2026-04-22 21:48 50.87987 7.12513 232 ft 17 kts 318°
2026-04-22 21:48 50.88045 7.12424 232 ft 9 kts 315°
2026-04-22 21:48 50.88085 7.12350 232 ft 11 kts 303°
2026-04-22 21:49 50.88104 7.12268 232 ft 9 kts 290°
2026-04-22 21:49 50.88120 7.12204 235 ft 7 kts 268°
2026-04-22 21:49 50.88084 7.12145 232 ft 6 kts 215°
2026-04-22 21:49 50.88071 7.12130 232 ft 0 kts 215°